Flag for Poland Weather past 2 weeks in Białystok, Poland

Now
39 °F

Fog.


Feels Like: 39 °F
Forecast: 35 / 39 °F
Wind: 2 mph from Southwest

Location: Bialystok

Current Time: Mar 2, 2015 at 9:25:59 AM

Latest Report: Mar 2, 2015 at 8:00 AM


Visibility: 3 mi

Pressure: 29.60 "Hg

Humidity: 93%

Dew point: 37 °F

Location of BiałystokLocation

Historic Weather in Białystok — Graph

°F

Białystok temperature yesterday

Maximum temperature yesterday: 45 °F (at 4:00 PM)
Minimum temperature yesterday: 33 °F (at 7:00 AM)
Average temperature yesterday: 40 °F

Past Weeks' High & Low Weather Summary

 TemperatureHumidityPressure
High47 °F (Feb 23, 1:00 PM)98% (Feb 15, 8:00 AM)30.79 "Hg (Feb 15, 8:00 AM)
Low18 °F (Feb 17, 6:00 AM)29% (Feb 17, 1:00 PM)29.60 "Hg (Feb 21, 4:00 PM)
Average35 °F79%30.10 "Hg
* Reported Feb 15 8:00 AM — Mar 2 8:00 AM, Białystok, Weather by CustomWeather, © 2015

Note: Actual official high and low records may vary slightly from our data, if they occured in-between our weather recording intervals... More about our weather records

Advertising

Białystok weather history for previous 24 hours

 ConditionsComfort  
Time TempWeatherWind HumidityBarometerVisibility
8:00 AM
Mon, Mar 2
39 °FFog.2 mph93%29.60 "Hg3 mi
7:00 AM39 °FFog.2 mph95%29.60 "Hg2 mi
6:00 AM39 °FLow clouds.2 mph95%29.61 "Hg2 mi
5:00 AM39 °FLight rain. Low clouds.3 mph95%29.61 "Hg2 mi
4:00 AM39 °FLight rain. Overcast.2 mph94%29.62 "Hg2 mi
3:00 AM39 °FLight rain. Overcast.2 mph93%29.62 "Hg3 mi
2:00 AM40 °FOvercast.2 mph93%29.64 "Hg3 mi
1:00 AM40 °FLight rain. Overcast.2 mph92%29.65 "Hg3 mi
12:00 AM41 °FFog.2 mph89%29.66 "Hg4 mi
11:00 PM
Sun, Mar 1
40 °FFog.2 mph89%29.69 "Hg4 mi
9:00 PM41 °FFog.3 mph86%29.73 "Hg4 mi
8:00 PM41 °FFog.3 mph84%29.75 "Hg5 mi
7:00 PM43 °FOvercast.5 mph81%29.76 "Hg6 mi
6:00 PM43 °FOvercast.3 mph81%29.78 "Hg5 mi
5:00 PM44 °FLight rain. Overcast.3 mph80%29.80 "Hg4 mi
4:00 PM45 °FFog.3 mph75%29.82 "Hg4 mi
3:00 PM44 °FFog.3 mph79%29.85 "Hg4 mi
2:00 PM42 °FFog.3 mph82%29.88 "Hg3 mi
1:00 PM41 °FFog.2 mph84%29.91 "Hg2 mi
12:00 PM40 °FLight rain. Overcast.2 mph82%29.95 "Hg3 mi
11:00 AM40 °FFog.1 mph76%29.97 "Hg4 mi
10:00 AM39 °FFog.1 mph81%29.99 "Hg4 mi
9:00 AM37 °FFog.1 mph89%30.01 "Hg2 mi
Weather by CustomWeather, © 2015

See weather overviewHow to use our weather pages